GFSFLT2_850_thetae_000.txt.gz
Theta_e
321 321 320 320 319 319 316 314 310 306 302 300 297 295 290 289 289 289 290 290 291 291 292 292 292 292 292
322 321 321 320 319 317 314 312 306 303 301 297 293 290 289 288 287 287 287 288 289 290 290 290 291 291 291
321 321 321 321 317 314 312 307 303 301 298 292 290 289 287 287 286 286 286 285 286 288 290 289 290 290 290
324 322 321 320 316 312 309 304 301 298 293 290 289 288 287 286 286 286 285 285 287 289 289 289 289 289 290
323 322 320 318 316 311 305 301 298 294 290 289 288 287 287 286 286 286 285 285 288 288 288 288 288 288 289
322 321 321 317 314 306 303 299 292 292 289 288 287 287 287 286 286 286 286 286 287 287 287 287 287 287 288
322 322 320 316 308 303 300 295 290 289 288 288 287 287 287 286 286 286 286 285 285 285 285 285 285 285 286
323 320 315 309 303 301 297 290 289 288 287 287 288 287 287 286 286 285 284 283 283 282 282 283 284 284 285
321 318 311 304 301 299 293 289 288 287 287 286 287 287 286 286 285 284 283 283 283 283 284 284 284 284 285
319 314 306 302 300 294 292 289 288 286 287 285 286 285 285 285 285 284 284 283 284 285 284 285 285 285 285
311 310 304 300 295 293 290 288 287 286 286 284 284 284 283 284 284 284 284 284 284 284 285 285 285 285 285
308 303 301 297 293 292 288 287 286 285 285 284 283 283 283 282 283 284 283 283 284 284 285 284 285 285 285
306 301 296 294 293 289 288 287 286 285 284 284 283 283 282 282 281 283 282 283 284 284 283 283 284 284 285
303 298 292 296 291 288 287 286 285 284 284 283 283 283 282 282 281 282 282 282 284 283 283 283 284 284 284
300 297 294 296 289 288 286 285 284 284 284 283 283 282 283 282 282 283 283 283 283 283 283 284 285 284 284
298 293 298 292 290 287 285 284 284 284 283 283 282 283 283 284 284 283 282 283 283 283 284 284 287 286 285
296 295 295 293 288 286 285 284 284 284 283 282 282 282 281 282 282 283 284 285 284 286 285 285 286 289 286

GFSFLT2_850_thetae_003.txt.gz
Theta_e
323 322 321 321 320 320 319 319 319 316 315 315 309 305 302 296 292 291 289 288 291 292 292 293 293 293 293
323 322 322 322 321 320 320 319 317 316 315 313 305 303 296 292 290 289 288 288 287 289 290 291 292 292 292
322 321 321 322 321 320 319 319 317 314 314 307 303 298 292 291 289 288 287 287 286 286 289 290 291 291 291
320 321 321 321 320 320 318 317 314 311 307 303 298 293 291 290 289 288 287 287 286 287 290 290 290 290 290
319 319 320 319 320 320 318 314 310 307 302 298 293 292 290 289 289 288 288 287 286 288 289 289 289 289 289
320 321 319 319 318 318 317 310 304 303 299 294 291 289 289 288 288 287 287 286 286 288 288 288 288 287 287
321 320 319 317 318 318 316 312 304 300 295 292 290 289 289 289 288 287 287 286 285 287 287 286 286 286 286
321 320 318 318 318 318 315 305 299 295 292 290 289 289 288 288 287 287 286 285 284 283 284 284 285 285 285
320 320 319 319 316 313 306 301 294 292 292 289 288 288 288 287 286 287 286 285 284 284 285 285 285 286 287
318 316 318 313 308 306 299 297 293 289 292 289 287 287 287 286 286 286 285 284 284 285 285 285 285 286 286
316 316 314 313 300 300 298 295 291 291 291 288 287 286 285 285 285 285 285 284 284 284 285 285 286 285 285
308 308 308 305 302 295 294 290 290 291 290 287 286 285 284 284 284 285 284 284 284 284 284 285 285 285 285
313 306 304 301 294 300 297 288 289 289 287 287 286 285 284 284 283 284 283 284 284 285 284 284 285 284 284
308 309 299 297 295 296 290 289 288 287 286 286 285 285 284 283 282 283 283 282 284 285 285 285 285 285 284
312 302 297 297 298 292 291 289 287 286 286 285 285 284 283 283 283 284 284 283 284 285 284 284 286 285 285
304 302 298 300 298 290 290 286 286 285 285 285 284 283 283 285 285 285 284 284 285 285 285 284 286 286 285
298 298 300 299 291 291 287 286 285 285 284 284 283 282 282 282 283 284 284 286 286 286 285 284 285 288 287

GFSFLT2_850_thetae_006.txt.gz
Theta_e
323 323 323 322 322 320 320 319 319 319 319 318 317 314 313 310 305 301 294 292 291 290 289 293 294 294 294
323 322 322 323 322 321 320 319 318 319 319 319 317 315 313 307 303 296 293 292 291 289 288 289 292 292 294
322 323 322 322 321 321 320 318 317 317 319 319 317 314 312 304 298 293 292 291 289 288 287 287 290 292 292
322 322 322 321 321 320 319 318 317 315 316 317 315 312 305 301 295 292 291 290 288 288 287 289 291 290 291
322 321 321 320 320 320 319 318 317 313 313 315 312 307 301 297 292 291 290 289 288 287 288 290 290 290 290
322 320 320 319 318 319 319 313 312 312 311 312 308 302 296 294 291 290 289 288 287 287 287 289 289 289 289
322 321 320 320 317 318 318 316 316 314 312 308 300 295 293 292 290 290 289 288 287 286 285 288 288 288 288
320 320 319 319 319 319 318 315 313 308 304 299 296 294 292 290 289 289 288 287 287 285 285 284 286 287 287
318 317 320 319 320 317 317 313 309 306 298 294 293 292 290 289 289 288 287 287 286 286 285 286 286 286 286
318 317 317 317 314 317 318 312 304 299 298 295 292 291 288 288 288 287 287 286 286 285 285 286 286 286 286
317 315 315 313 314 307 306 309 307 302 297 295 293 289 288 288 287 286 286 286 285 284 284 284 285 286 286
315 315 309 308 305 303 303 300 300 296 293 293 290 288 287 287 286 286 285 284 284 284 284 285 285 285 286
311 306 305 303 301 300 299 295 293 295 292 289 288 287 286 286 286 286 285 285 285 285 285 285 285 285 285
305 302 302 299 302 297 295 295 295 294 290 288 287 286 286 285 284 286 284 284 285 284 284 285 285 285 285
300 299 299 297 298 296 296 294 296 291 287 287 286 286 285 284 285 286 286 285 284 285 285 285 286 287 287
297 297 297 295 294 296 295 295 289 287 286 286 285 285 285 285 285 286 285 285 285 285 285 286 288 289 288
295 294 294 294 292 295 294 289 287 286 286 285 284 284 283 284 284 284 284 286 286 286 286 287 287 289 288

GFSFLT2_850_thetae_009.txt.gz
Theta_e
323 323 323 323 321 320 321 321 321 320 319 319 318 317 317 317 316 315 312 306 301 294 291 291 293 296 296
323 323 323 323 322 322 320 320 321 320 318 317 318 316 314 314 314 313 310 303 295 292 291 290 289 292 294
323 323 322 321 321 321 320 320 320 320 320 316 317 315 314 311 310 311 305 298 293 291 291 290 289 289 293
321 322 322 322 321 320 321 320 319 320 317 316 315 316 313 309 306 305 300 294 291 290 290 289 288 288 292
318 319 319 320 318 318 320 320 320 320 316 316 314 314 311 305 304 306 294 292 291 290 290 288 288 290 292
315 317 317 319 318 319 318 313 315 317 313 314 314 309 308 303 304 293 292 292 290 290 289 287 288 291 290
313 315 316 317 319 317 315 316 312 318 312 308 311 309 303 301 300 292 292 290 290 289 288 287 288 290 289
312 312 313 317 318 318 317 313 314 315 307 308 308 304 301 299 295 291 290 289 289 288 288 286 287 287 288
310 311 311 315 316 317 315 313 310 310 305 306 303 302 299 300 292 290 289 289 288 289 287 286 286 287 287
308 311 311 312 314 316 317 314 306 305 306 301 300 296 294 295 292 289 288 287 287 287 286 287 288 287 286
307 309 311 311 311 314 314 312 308 306 305 302 299 300 295 289 288 287 287 287 286 286 286 285 285 285 286
306 309 310 309 307 309 307 306 303 304 304 301 302 298 294 288 287 287 286 286 285 285 284 284 285 285 286
305 305 304 303 303 301 300 300 300 299 298 299 297 291 288 288 287 286 285 285 285 284 284 286 286 285 285
300 300 300 299 298 298 298 298 299 295 295 292 287 287 287 286 286 285 285 285 285 285 285 285 285 285 286
298 298 298 297 296 296 296 297 296 294 293 286 286 286 286 286 286 285 285 286 286 285 285 286 286 286 286
295 296 296 295 294 295 297 294 294 291 286 286 286 285 285 285 285 287 286 286 286 285 285 285 288 289 288
293 293 294 293 294 295 293 292 290 286 286 285 285 285 284 285 286 286 286 285 286 286 287 287 287 289 288

GFSFLT2_850_thetae_012.txt.gz
Theta_e
319 320 321 321 322 322 322 322 322 322 320 320 320 320 320 319 319 318 317 318 316 314 312 311 304 295 298
316 317 317 318 320 320 320 321 322 321 318 321 320 321 320 319 319 317 317 317 314 312 310 306 297 293 298
314 314 314 317 317 319 319 320 321 321 320 319 320 320 320 319 318 318 316 315 311 307 306 300 292 293 295
311 313 313 314 316 317 318 317 317 319 318 319 319 319 319 319 317 316 315 311 309 307 302 299 290 290 292
308 311 313 313 314 314 316 316 316 317 316 314 315 317 317 316 315 314 313 308 306 304 296 293 290 289 289
304 306 308 311 313 312 315 314 314 316 314 315 314 316 311 313 314 313 307 306 305 295 292 291 292 291 292
302 304 306 307 309 311 312 314 313 314 314 313 312 311 310 309 308 305 303 303 301 292 292 291 291 290 291
299 301 302 303 305 308 310 311 313 314 313 311 311 308 308 306 303 301 301 299 298 295 291 291 290 289 291
300 301 302 303 304 305 306 308 309 311 311 310 309 307 302 301 300 300 299 300 294 291 292 291 290 288 290
300 301 302 303 305 305 306 306 309 308 308 306 302 299 296 297 298 297 295 291 291 291 291 291 290 288 288
297 300 301 302 304 305 306 306 308 308 310 305 300 298 299 295 295 294 293 290 291 291 290 290 289 289 288
295 297 299 301 302 302 302 304 306 305 304 303 299 299 300 293 292 292 290 287 287 288 288 287 287 288 287
293 295 297 298 298 297 298 300 300 299 299 297 298 298 298 296 289 287 287 286 286 286 285 285 284 284 284
292 293 295 295 294 295 296 296 297 294 293 296 295 295 291 287 287 287 286 286 285 285 284 284 284 285 285
291 292 292 293 293 293 294 294 295 292 292 293 289 286 286 287 286 286 285 285 285 285 285 285 285 285 285
291 290 291 291 291 291 292 292 293 291 291 287 286 286 286 285 285 285 285 285 285 285 284 285 286 286 286
289 289 289 289 289 290 290 291 291 287 286 286 286 285 285 285 285 286 286 286 285 285 286 286 287 288 288

GFSFLT2_850_thetae_015.txt.gz
Theta_e
308 309 312 314 313 314 315 316 316 317 319 320 320 321 321 321 320 321 321 319 318 318 318 319 316 316 313
306 309 310 311 312 313 314 315 316 316 316 319 318 319 320 321 320 320 320 320 319 318 319 318 316 315 312
300 306 306 307 311 311 312 313 313 315 316 315 318 316 317 319 317 319 320 320 319 318 318 315 315 312 304
297 298 300 302 306 308 310 311 312 312 312 314 315 315 316 314 315 318 319 318 319 318 318 317 312 311 307
296 296 297 300 302 304 306 307 308 309 311 311 311 314 315 316 314 315 316 317 317 317 315 314 311 312 300
294 294 296 297 298 300 302 304 306 308 311 311 312 313 314 315 315 314 315 315 315 314 312 310 306 305 302
293 293 295 296 297 298 299 300 303 305 308 309 311 310 310 314 314 312 312 313 311 310 309 307 305 301 295
292 294 295 296 298 298 299 300 301 302 304 306 307 309 310 311 311 309 310 308 306 304 303 302 298 298 293
294 294 294 295 297 298 300 301 301 302 304 305 307 308 308 308 305 306 306 303 301 300 298 296 296 293 292
292 292 293 294 296 298 300 301 301 302 303 304 304 305 300 302 300 299 298 298 299 298 295 294 293 292 291
290 291 291 292 294 295 297 298 299 299 300 302 304 302 299 297 296 297 297 297 296 294 293 292 292 291 290
289 290 290 291 292 293 295 295 296 297 299 299 300 301 299 294 292 293 293 294 293 292 292 292 292 292 290
289 289 289 290 291 292 292 292 294 295 297 297 298 298 297 297 293 291 291 291 292 292 292 291 291 290 290
288 288 288 290 290 290 290 291 291 291 292 293 294 295 296 296 294 291 293 292 291 290 289 289 289 288 287
288 287 288 288 289 289 290 289 290 290 291 291 292 292 289 290 289 293 289 286 287 287 287 287 285 284 284
287 287 287 288 288 288 289 290 290 289 289 289 286 285 285 285 285 286 286 285 285 285 284 284 284 284 285
287 286 287 287 287 288 288 289 289 288 285 285 285 285 285 284 284 284 284 284 284 284 284 285 285 285 285

GFSFLT2_850_thetae_018.txt.gz
Theta_e
299 302 301 294 297 306 307 308 309 310 312 313 314 315 316 317 318 319 319 320 320 320 320 320 319 318 319
298 297 296 294 294 293 296 300 304 309 309 309 311 313 315 316 316 317 319 318 318 319 320 320 320 318 319
294 292 293 293 294 293 294 297 301 306 310 310 312 311 312 313 314 314 315 316 317 318 316 319 320 319 318
292 293 293 294 294 294 295 297 297 299 303 306 306 307 308 309 310 311 314 315 315 316 315 317 319 320 319
291 292 292 292 293 293 294 296 297 299 300 302 303 304 308 310 310 310 314 315 315 315 315 314 318 320 319
290 290 290 291 292 292 293 295 296 297 299 300 300 304 307 309 311 311 311 310 314 315 314 313 318 318 317
289 289 290 290 292 292 294 295 296 296 297 298 299 300 303 304 306 307 307 308 311 312 313 315 315 314 311
290 290 291 293 294 294 293 294 296 297 298 299 299 300 302 305 306 307 308 308 310 311 313 314 311 309 303
289 290 291 291 291 292 293 293 294 296 297 300 301 301 301 302 304 306 306 308 309 310 311 307 303 303 300
289 288 288 289 289 290 290 292 294 293 296 300 301 301 301 302 303 305 305 305 307 306 303 300 302 300 298
286 287 287 288 289 289 289 290 290 290 292 293 295 297 298 300 301 301 304 302 301 299 298 297 297 297 295
285 286 287 288 288 288 289 289 289 290 292 293 292 294 296 297 298 299 299 299 298 297 296 295 294 294 293
285 285 286 287 287 288 288 289 288 289 290 291 292 293 294 296 296 295 295 295 295 295 294 294 293 292 292
284 284 286 286 286 287 287 287 287 288 289 289 291 292 294 293 294 292 292 293 293 293 293 293 292 293 292
283 284 285 286 286 287 287 287 288 288 288 288 289 290 291 290 289 290 291 292 292 292 292 293 293 292 291
283 284 285 286 286 287 287 287 287 286 286 287 288 289 288 288 289 291 292 291 291 292 291 291 291 291 290
283 284 285 285 286 286 286 286 286 286 285 284 284 284 284 284 287 287 287 286 289 289 288 288 288 287 285

GFSFLT2_850_thetae_021.txt.gz
Theta_e
292 292 296 295 294 293 293 291 293 294 295 296 300 303 309 310 309 312 315 316 318 319 320 319 320 321 320
291 294 293 292 292 292 293 294 293 293 298 300 299 305 308 308 309 311 312 315 316 316 317 318 320 320 320
290 290 290 291 291 291 291 292 292 293 296 297 297 297 303 307 309 309 309 311 313 313 314 316 317 317 317
290 290 289 290 290 290 289 290 291 293 294 295 297 298 298 301 303 305 307 309 310 311 312 314 316 317 316
289 289 290 290 289 289 290 290 291 291 292 294 296 297 299 301 304 306 306 307 309 311 312 314 315 315 315
289 288 288 288 289 290 290 291 292 292 293 296 295 295 296 296 299 300 304 307 310 311 307 308 314 315 315
287 287 287 287 288 289 291 291 292 293 293 294 294 295 296 297 298 301 303 303 306 306 306 308 312 314 314
286 286 286 287 289 290 291 291 290 291 291 294 293 294 296 298 300 301 302 303 304 306 308 308 310 311 314
286 287 288 288 288 289 289 290 290 290 290 292 294 295 297 299 300 300 301 302 304 306 307 308 311 312 313
284 285 286 286 286 287 288 289 289 289 290 291 291 291 294 299 300 300 301 303 305 307 308 309 310 311 310
284 284 284 285 285 286 287 288 288 288 288 289 289 290 292 294 295 297 298 302 305 307 307 308 310 308 305
282 283 284 284 284 285 286 287 287 287 287 287 287 288 289 292 293 295 299 303 305 302 300 299 300 302 304
282 282 283 283 284 285 286 286 287 287 287 286 287 288 289 290 292 296 298 299 300 299 297 298 299 299 297
281 282 282 283 283 285 286 286 286 286 286 286 287 288 288 290 292 294 296 295 296 297 295 295 295 294 294
281 281 282 283 284 285 286 286 286 285 285 286 285 285 288 289 290 291 293 293 295 295 294 294 293 292 292
281 281 282 283 285 286 286 285 285 285 286 286 286 286 286 286 288 290 292 293 293 294 294 293 292 292 291
281 282 283 284 285 286 285 285 285 284 283 284 284 286 287 285 287 290 292 291 292 292 292 292 291 291 291

GFSFLT2_850_thetae_024.txt.gz
Theta_e
291 291 291 292 292 292 292 292 293 293 294 295 296 296 298 301 300 303 305 309 311 312 314 316 316 317 317
290 290 291 291 291 291 291 291 292 292 292 293 294 295 297 298 298 300 302 307 309 310 312 315 316 318 316
289 290 290 290 290 290 291 291 291 290 291 291 292 294 294 296 298 299 299 301 307 309 311 313 315 317 318
289 289 290 289 290 290 290 290 290 291 291 292 293 294 295 296 297 298 299 302 303 305 307 310 312 313 314
289 290 288 288 288 289 289 289 289 290 290 292 292 293 294 296 297 295 297 299 302 306 307 309 311 311 312
288 288 287 287 288 288 287 288 289 290 291 291 292 293 292 293 295 296 296 297 298 302 306 308 310 310 310
287 286 286 286 286 287 288 289 290 289 289 290 290 292 292 292 293 295 296 298 299 300 302 307 308 309 307
285 285 286 286 287 287 287 287 288 289 290 291 291 291 291 292 292 295 296 299 300 301 302 304 307 308 307
285 286 286 286 286 286 286 287 287 288 289 290 289 291 292 292 292 293 298 300 300 301 302 303 304 306 308
284 284 284 284 285 285 286 286 286 287 287 289 288 289 290 290 294 296 297 299 300 301 302 303 305 305 307
283 283 283 283 284 284 284 284 285 286 286 288 288 288 289 289 289 291 293 297 299 300 302 305 306 307 309
282 282 283 283 283 283 284 284 285 285 286 287 287 288 287 287 288 290 292 295 300 304 306 306 306 308 309
282 282 282 282 283 283 284 285 286 287 287 287 286 286 285 286 287 289 292 296 299 304 304 303 303 303 302
281 281 282 282 283 283 284 286 287 287 286 285 285 284 285 286 288 290 291 294 295 300 299 298 298 298 300
280 281 281 282 283 285 286 286 285 285 285 285 284 285 285 287 289 290 292 292 294 297 298 297 297 298 299
280 281 282 283 285 286 285 285 284 284 284 285 284 285 286 286 288 289 291 292 294 296 296 295 293 294 295
280 282 283 284 285 285 285 285 284 283 282 282 284 287 286 285 286 288 290 292 294 293 293 293 292 292 293

GFSFLT2_850_thetae_027.txt.gz
Theta_e
290 290 290 290 290 291 290 291 291 291 292 292 293 293 293 293 294 296 297 299 301 304 305 308 311 312 314
289 289 290 289 290 290 291 290 290 290 291 291 292 292 293 293 294 295 296 297 298 300 302 304 308 311 313
289 289 289 289 290 290 290 288 288 289 290 290 291 292 293 293 294 295 295 296 298 299 300 302 305 309 311
288 289 289 289 290 289 288 288 288 289 288 288 290 291 292 293 293 294 296 296 298 297 300 302 304 307 309
288 289 289 288 288 287 287 287 287 287 288 289 290 291 291 291 291 293 294 297 297 297 299 300 303 307 308
289 288 287 286 286 286 286 287 287 287 288 288 288 289 290 291 291 293 294 294 295 295 296 297 299 304 307
287 286 285 285 285 286 287 287 287 287 287 288 288 289 291 290 292 292 293 294 295 295 296 298 299 301 305
285 285 285 285 286 286 286 286 285 286 287 288 287 289 288 289 290 290 291 292 293 295 296 298 299 301 303
285 285 285 285 285 285 285 285 285 286 286 286 286 287 287 288 288 289 292 294 295 297 298 299 300 302 303
283 283 283 283 284 284 284 284 284 285 285 285 285 286 287 288 291 291 290 290 292 295 299 300 300 301 302
282 282 282 283 283 283 283 283 284 284 284 285 285 286 287 287 288 288 288 289 292 294 297 300 300 301 302
282 282 282 282 282 282 283 283 284 284 286 286 286 286 286 288 287 287 287 290 293 298 300 301 301 302 303
281 281 281 282 282 283 284 285 286 286 287 287 288 287 286 285 285 285 287 291 294 299 304 305 305 304 305
281 281 281 282 283 284 285 286 285 285 285 285 285 284 285 286 286 288 289 291 294 297 301 302 302 302 304
280 280 281 282 283 285 286 285 285 284 283 283 284 285 285 287 289 290 291 292 293 295 299 298 298 298 298
280 281 281 283 284 283 283 284 284 284 283 282 285 286 286 286 288 289 291 292 293 295 297 298 297 297 297
281 281 282 283 283 283 283 284 285 284 284 282 285 286 286 285 287 289 291 292 294 294 294 295 294 294 295

GFSFLT2_850_thetae_030.txt.gz
Theta_e
287 288 288 288 287 288 288 289 289 290 291 291 290 290 292 293 293 293 293 294 295 296 297 299 301 303 306
288 288 287 287 287 287 288 289 289 289 289 289 289 290 292 292 291 291 292 294 295 295 296 297 298 299 304
287 287 287 287 287 288 289 288 287 287 286 287 288 289 289 290 291 292 293 293 294 295 296 297 298 301 302
288 288 287 287 287 287 287 286 286 286 286 286 287 288 289 290 291 291 291 291 292 294 295 296 297 299 301
287 286 288 286 285 285 285 285 285 285 286 286 286 286 286 287 288 289 290 292 293 294 294 295 298 297 299
287 285 285 284 285 284 284 285 285 286 286 285 286 285 286 287 288 290 292 292 293 294 294 295 295 296 298
285 284 284 284 285 285 285 286 286 285 284 284 285 285 286 287 287 289 289 290 291 292 293 294 295 296 296
284 284 285 285 285 285 284 284 284 284 284 284 285 285 284 285 286 287 288 289 290 291 292 293 294 296 296
284 284 284 284 284 284 284 283 283 284 283 283 283 284 284 284 285 287 288 290 290 292 291 294 294 296 296
283 282 282 282 282 282 282 282 282 283 283 283 283 284 285 285 287 287 287 287 288 289 290 293 295 298 297
281 281 281 281 281 282 282 282 282 282 284 284 284 285 285 285 286 286 287 287 288 289 292 294 296 298 300
281 281 281 281 282 283 284 285 285 285 285 285 285 285 285 285 285 286 286 288 290 291 293 297 297 299 299
281 280 280 281 282 283 283 284 284 285 285 284 284 284 284 284 285 287 287 290 291 292 295 299 299 298 299
280 280 281 282 283 283 283 283 284 284 285 284 283 283 284 285 287 289 290 290 292 294 295 301 302 300 300
280 281 282 282 283 283 283 283 284 284 284 284 286 286 286 286 287 289 290 292 294 295 297 301 301 302 303
281 282 282 282 282 283 283 283 284 285 284 284 285 286 287 286 287 290 291 292 294 295 296 296 296 296 298
282 282 282 282 282 283 284 284 285 285 285 284 284 285 285 285 288 290 291 292 294 295 295 295 295 295 296

GFSFLT2_850_thetae_033.txt.gz
Theta_e
287 287 287 287 287 287 287 287 287 288 289 290 291 290 290 290 290 291 291 293 294 294 294 296 297 298 299
287 287 286 287 287 286 286 287 286 286 287 288 288 288 288 289 290 291 290 291 291 292 293 293 295 297 298
287 286 287 287 286 286 286 285 284 285 285 285 286 287 287 288 289 290 290 291 292 292 293 294 294 295 297
287 287 286 286 286 284 284 284 284 284 284 285 285 286 287 287 288 288 288 289 290 290 292 292 293 293 295
286 286 287 284 284 284 283 284 284 284 285 285 285 285 285 285 285 286 287 288 290 291 292 293 293 294 295
287 285 284 284 283 283 284 285 285 284 284 284 284 284 284 284 285 286 288 289 289 290 291 292 292 294 295
284 284 284 283 284 285 284 283 284 283 283 283 283 283 283 284 285 286 287 287 288 289 291 291 292 294 294
283 284 284 285 284 283 283 283 283 282 282 283 283 283 283 283 284 285 286 287 287 288 289 290 291 292 293
284 283 283 283 283 283 282 282 282 282 283 282 282 283 283 284 285 285 287 287 288 288 289 290 291 291 292
282 282 281 281 281 281 281 281 281 282 283 283 283 284 284 284 285 285 285 286 286 288 289 290 290 291 292
281 281 281 281 281 282 282 282 282 282 284 284 284 284 284 284 285 285 285 285 286 286 287 287 289 291 292
280 281 281 281 282 283 283 283 283 283 284 284 284 285 284 283 283 285 286 288 289 289 290 290 291 291 292
280 280 281 282 282 282 283 283 283 284 285 284 284 284 283 282 284 286 286 290 290 291 291 292 293 294 294
280 281 282 282 282 282 283 284 284 285 285 284 284 284 285 286 286 287 289 289 291 292 293 295 298 297 297
281 281 282 282 282 283 284 284 284 285 285 285 285 286 287 286 286 288 290 292 293 294 295 297 299 299 298
281 281 281 282 282 283 284 285 285 286 285 284 285 287 288 288 288 290 292 293 293 294 295 298 298 299 301
282 282 283 283 283 284 285 285 286 286 285 284 286 286 286 286 288 290 292 293 293 294 294 295 295 295 298

GFSFLT2_850_thetae_036.txt.gz
Theta_e
286 286 286 286 286 286 286 286 286 286 287 287 288 288 288 289 290 290 291 291 291 292 293 294 295 296 297
286 286 285 286 286 286 286 286 285 284 285 286 286 287 287 288 288 289 290 290 290 291 291 292 293 294 295
285 286 286 286 286 286 285 284 283 283 284 285 285 286 287 287 287 288 289 289 290 290 291 291 292 293 294
286 286 286 286 285 284 283 283 283 284 284 284 285 285 286 286 287 287 288 288 288 288 289 290 290 292 292
285 285 286 284 283 283 283 283 284 284 284 283 283 284 283 284 284 285 285 286 287 288 288 289 290 291 292
285 284 283 283 283 284 284 284 283 283 283 283 283 283 283 283 284 285 285 286 287 288 288 289 290 291 292
283 283 283 283 284 284 283 283 283 282 282 282 282 282 283 283 284 284 285 286 287 287 288 289 289 289 291
282 283 284 284 283 283 283 283 282 282 282 282 282 282 283 284 285 284 285 285 286 287 288 288 288 289 290
283 283 282 282 282 283 282 281 281 281 282 281 282 282 283 284 284 284 285 285 287 287 288 288 288 289 289
281 282 282 283 282 282 281 281 281 281 282 282 282 283 284 284 284 284 284 284 285 286 287 288 289 289 289
281 281 282 282 282 282 282 281 281 281 284 283 283 283 284 284 284 284 284 286 286 287 287 286 288 289 289
280 281 281 282 283 283 283 284 283 283 285 285 284 284 284 284 284 286 287 287 287 288 289 289 288 288 289
280 281 281 282 283 283 284 284 285 285 285 285 284 284 283 284 285 286 286 289 290 291 290 290 290 290 290
280 282 282 283 283 283 284 284 285 286 286 284 285 285 286 287 287 287 290 286 291 292 292 292 292 292 291
281 282 283 282 283 284 284 284 285 285 285 285 287 287 288 288 288 288 291 292 292 294 295 296 296 295 295
282 282 282 282 283 284 285 285 285 285 285 285 286 288 289 290 289 290 292 292 292 294 295 297 297 298 298
282 283 283 284 284 285 285 285 286 286 285 286 286 286 287 286 290 291 293 293 293 292 292 294 295 298 301

GFSFLT2_850_thetae_039.txt.gz
Theta_e
285 285 285 285 285 285 286 286 285 286 287 287 287 287 287 288 288 289 290 290 291 292 293 293 294 295 295
285 284 285 285 285 286 286 286 285 284 285 285 286 286 287 287 288 288 288 289 290 290 291 291 292 293 294
284 285 285 285 285 285 284 283 283 283 284 284 285 285 286 287 287 288 288 288 289 289 290 290 291 292 293
285 285 285 285 283 283 282 283 283 283 284 284 284 285 285 285 285 286 286 287 287 288 288 289 290 290 291
286 284 284 283 282 282 283 283 284 283 283 283 283 282 283 283 283 284 284 285 286 286 287 288 288 289 290
284 283 282 282 283 283 284 283 283 283 283 283 282 282 283 283 283 284 285 286 287 287 287 288 289 289 290
282 282 282 283 284 283 282 282 282 282 282 282 282 282 282 283 283 284 285 285 286 286 287 287 288 289 289
283 283 284 283 283 283 282 282 282 282 281 281 282 282 282 283 284 284 284 285 286 286 287 288 288 288 289
283 282 282 282 282 282 282 281 281 281 282 281 282 282 282 283 284 284 285 286 286 286 287 288 288 289 289
282 282 283 283 283 282 282 280 281 281 284 282 282 282 283 283 284 284 284 286 285 285 286 287 288 288 288
281 281 282 283 283 283 283 282 281 281 285 283 283 283 283 283 284 285 286 287 287 288 288 287 286 287 289
280 281 282 283 284 284 284 284 284 284 285 285 284 284 284 284 284 288 288 288 288 289 290 290 288 287 287
280 282 282 283 284 284 285 285 286 286 286 285 285 285 285 285 286 288 287 289 290 291 290 289 289 289 288
281 282 283 284 285 285 284 285 285 286 286 286 286 287 287 289 288 288 289 288 291 291 292 291 291 289 289
282 282 283 284 285 285 285 285 285 285 286 287 288 288 289 290 289 289 290 292 292 293 295 295 293 290 290
283 283 283 283 284 285 285 285 285 285 285 286 287 289 290 290 289 289 293 292 292 292 293 295 296 294 293
283 284 283 284 284 285 285 285 285 285 286 287 287 287 287 287 290 290 290 293 292 293 293 293 294 297 297

GFSFLT2_850_thetae_042.txt.gz
Theta_e
284 284 284 284 284 285 285 285 284 285 286 286 287 287 287 288 288 289 289 289 290 291 292 292 293 294 295
284 284 284 285 285 285 284 284 283 283 284 285 286 286 287 287 287 288 288 288 289 289 290 290 292 292 293
284 284 285 285 284 283 282 282 283 283 283 284 285 285 286 287 287 288 288 288 288 288 289 289 290 291 292
285 285 285 284 282 282 282 283 283 283 283 283 284 284 285 285 285 285 286 286 286 287 287 288 289 290 290
285 284 283 282 282 283 282 283 283 283 283 283 283 283 283 283 283 284 284 284 285 286 287 288 288 288 289
283 282 282 283 283 283 283 282 283 283 283 282 283 283 283 283 284 283 284 285 286 287 287 287 288 289 289
282 282 283 283 283 282 282 282 282 283 282 282 283 283 284 283 284 284 284 285 286 286 287 287 288 288 288
283 283 284 283 282 282 282 282 282 283 282 281 283 283 283 284 285 285 284 285 286 286 286 287 288 288 288
283 282 282 282 282 282 282 281 281 282 285 281 283 282 283 284 285 285 285 285 286 286 287 288 288 288 288
282 283 283 284 283 283 282 280 280 280 285 281 281 282 283 284 285 286 287 289 288 286 286 287 288 288 287
282 282 283 283 284 284 284 282 282 281 286 282 282 283 282 283 285 288 288 289 288 289 290 289 287 287 288
281 282 282 283 284 284 285 285 285 284 286 285 283 284 284 284 284 290 289 289 289 291 291 290 290 289 287
280 283 283 284 285 285 285 285 286 286 286 286 285 285 285 285 286 289 288 289 291 291 291 291 291 289 288
282 283 284 285 285 285 284 285 285 286 287 286 287 287 288 290 289 289 289 288 291 292 293 293 291 289 288
283 283 284 284 285 285 284 285 285 285 287 287 288 289 290 290 289 289 289 290 292 292 293 293 293 290 290
284 284 284 284 284 285 285 285 285 286 286 286 288 289 290 290 289 290 289 290 292 292 292 293 294 294 290
284 284 283 284 284 285 285 285 286 286 286 286 288 287 286 287 290 290 290 290 291 292 292 293 295 295 293

GFSFLT2_850_thetae_045.txt.gz
Theta_e
284 284 285 285 285 285 285 285 284 285 285 286 286 287 288 288 289 289 289 290 290 290 291 292 293 293 294
284 284 285 285 285 285 284 283 283 283 284 285 286 286 287 287 288 288 288 289 289 290 290 290 291 292 293
284 285 285 285 284 283 283 283 283 283 284 284 285 285 286 287 287 288 288 288 288 288 289 289 290 291 291
285 285 284 284 283 283 283 283 283 283 283 284 284 285 285 285 286 286 286 286 287 287 288 288 288 289 290
285 284 283 283 283 283 283 283 283 283 283 284 284 284 285 285 285 285 284 285 286 286 287 287 288 288 289
283 283 283 283 283 283 283 282 283 284 284 283 284 284 285 285 285 285 285 286 286 287 287 287 287 288 289
283 283 283 283 284 283 283 282 283 283 283 283 285 284 285 285 286 286 286 286 286 287 287 287 287 288 288
283 283 283 283 282 282 282 282 283 283 282 281 285 284 284 286 288 287 287 285 286 287 287 288 288 288 288
283 282 282 283 282 282 282 281 282 282 285 282 283 283 284 286 287 287 286 287 288 288 287 287 287 288 289
282 283 283 284 284 282 282 281 281 280 285 282 282 282 283 284 287 288 289 290 288 288 288 288 288 288 288
283 284 284 284 284 284 284 282 282 281 286 282 282 284 282 283 287 288 288 290 289 289 291 291 291 290 288
283 284 284 284 285 285 285 285 284 285 286 285 283 284 284 283 284 288 290 289 288 289 290 291 291 291 289
281 283 284 285 285 285 285 285 286 286 286 286 286 286 285 284 285 288 289 288 289 289 291 291 292 292 290
283 284 284 285 285 284 285 285 285 287 287 287 287 286 287 289 288 289 289 289 290 290 292 292 292 291 289
284 284 284 284 285 285 285 285 285 285 286 287 288 288 289 289 289 289 289 289 290 291 292 293 293 292 290
284 284 284 284 284 285 285 285 285 286 286 286 287 289 290 291 290 290 290 289 290 292 292 293 294 293 290
284 284 284 284 284 285 285 285 286 286 286 286 287 287 286 287 290 291 290 290 290 291 292 292 293 292 290

GFSFLT2_850_thetae_048.txt.gz
Theta_e
287 286 286 287 287 287 286 286 286 285 286 286 287 287 288 288 289 289 290 290 291 291 292 292 293 293 294
286 286 286 287 287 286 286 285 285 285 286 286 287 287 287 288 288 289 289 290 290 290 291 291 292 292 293
286 286 287 287 287 285 285 285 285 285 286 286 286 287 287 287 288 288 288 289 289 289 289 290 290 291 291
286 286 287 286 285 285 285 285 285 285 285 286 286 286 286 287 287 287 287 287 288 288 288 289 289 289 290
287 286 285 285 285 285 284 285 285 285 285 285 285 285 286 286 286 286 286 287 287 287 288 288 288 288 289
285 285 285 284 284 284 284 284 284 285 285 284 285 285 285 285 286 286 286 287 287 287 288 288 288 289 289
284 284 284 284 284 284 284 283 284 283 284 284 284 285 285 286 286 287 287 288 287 288 288 288 289 289 289
284 284 284 284 284 283 283 283 284 284 284 284 285 285 285 286 288 289 289 288 287 288 288 288 289 289 289
284 284 284 283 283 283 283 282 283 283 284 283 285 284 285 287 288 287 287 289 289 288 288 289 289 289 289
284 283 283 283 283 283 282 282 282 281 284 283 282 283 283 285 287 289 288 289 289 288 289 289 289 289 290
282 283 283 283 283 283 283 282 282 282 286 282 282 283 282 283 287 290 288 289 289 288 289 289 289 290 290
281 282 282 284 285 285 285 285 285 284 286 285 283 284 283 283 284 289 291 290 289 289 290 290 290 291 291
280 282 283 284 285 284 285 285 286 286 286 286 285 285 284 284 285 287 288 290 289 290 290 290 291 291 292
281 283 284 284 284 284 284 285 285 286 286 286 286 286 286 287 287 289 290 289 290 290 290 291 293 293 292
283 284 284 284 285 285 284 284 284 284 286 287 286 287 288 289 290 291 289 289 290 290 290 291 293 292 291
284 284 284 284 284 285 285 285 283 285 284 286 286 288 289 290 290 290 290 289 290 290 290 291 292 291 290
284 285 284 284 285 285 285 285 285 285 285 285 286 287 287 288 290 291 290 290 290 290 290 291 291 292 291

GFSFLT2_850_thetae_051.txt.gz
Theta_e
287 287 287 287 287 287 288 287 287 286 287 288 288 289 289 289 290 290 290 291 291 292 292 293 293 294 294
287 287 287 287 287 288 288 286 286 286 287 287 288 288 289 289 289 290 290 290 290 291 291 291 292 293 293
286 286 286 287 288 287 286 286 286 286 286 286 287 287 288 289 289 289 289 289 289 290 290 291 291 291 292
285 286 287 287 286 286 286 285 285 285 286 286 286 287 287 287 288 288 288 288 289 289 290 290 290 290 290
286 287 286 286 285 285 285 285 285 286 285 285 285 285 286 286 286 287 287 288 289 289 289 290 290 290 290
286 286 286 285 284 284 284 285 285 284 285 285 285 285 285 286 286 287 288 288 288 289 290 290 290 290 290
286 285 285 284 284 285 285 284 284 284 284 284 285 285 285 286 286 287 288 289 288 289 289 289 289 290 290
285 284 284 285 286 285 284 284 284 284 284 284 284 285 285 285 287 288 289 288 289 289 289 290 290 290 290
284 284 285 285 285 284 284 283 283 283 284 283 284 284 285 287 287 287 288 290 290 289 289 290 290 290 290
283 283 283 283 284 284 284 283 283 282 284 283 282 282 282 284 287 289 289 291 290 290 289 289 290 290 290
283 282 283 284 284 283 283 282 281 281 285 282 281 282 281 282 287 289 289 290 290 290 290 290 290 290 290
282 282 282 284 284 285 285 284 284 283 285 285 282 282 282 282 283 289 290 291 290 290 290 290 289 290 291
282 282 283 283 284 285 285 285 285 286 286 285 283 283 283 284 284 286 286 290 290 289 289 289 289 291 291
282 283 284 284 285 284 284 285 284 286 286 285 284 284 285 286 286 287 290 288 289 290 289 290 290 291 292
283 283 284 284 285 285 285 284 282 283 285 286 286 284 286 287 287 289 289 289 289 289 289 290 290 291 292
284 284 284 284 284 285 285 285 282 282 283 284 284 285 286 287 288 289 289 289 289 289 289 290 290 291 291
284 284 284 284 285 285 285 285 285 283 283 284 285 285 286 286 288 289 289 290 289 289 289 290 290 291 291

GFSFLT2_850_thetae_054.txt.gz
Theta_e
287 287 287 286 286 286 286 287 287 287 287 288 289 289 289 290 290 291 291 291 292 292 292 293 293 293 294
286 286 286 285 286 286 286 285 286 286 287 287 288 288 289 289 289 290 290 290 291 291 292 292 292 293 293
285 285 285 286 287 286 285 285 285 285 285 286 286 287 287 288 288 289 289 289 290 290 290 291 291 292 292
286 286 286 286 286 285 285 284 284 284 285 286 286 286 286 286 286 287 287 288 288 289 290 290 291 291 291
285 285 286 286 285 285 284 284 285 285 285 286 285 285 286 286 286 286 287 288 289 289 290 290 291 291 291
286 286 285 285 284 284 284 285 285 285 284 284 285 285 285 285 286 286 286 287 289 289 290 290 290 291 291
285 284 284 284 284 284 286 285 284 284 284 284 285 285 285 285 286 286 287 288 287 289 290 290 290 291 291
284 284 284 284 285 285 285 284 284 284 283 283 284 284 284 285 286 287 287 287 288 288 288 289 290 290 291
283 284 284 284 284 284 284 283 283 283 284 282 283 283 284 286 286 286 286 288 289 290 288 288 289 290 290
283 284 284 283 284 284 282 282 282 282 284 282 282 282 282 283 285 287 288 289 289 290 290 290 290 290 290
283 283 284 285 285 285 283 281 281 281 286 282 282 282 281 282 285 286 287 289 289 291 291 290 290 289 290
282 283 284 285 285 285 285 285 284 283 285 284 282 282 282 282 283 285 287 289 289 290 290 289 289 289 289
282 284 284 284 285 285 285 285 285 286 285 285 283 283 283 283 284 285 286 289 290 289 289 289 289 289 289
283 284 285 284 285 285 284 284 283 286 286 284 283 283 283 284 284 285 287 286 288 289 289 288 289 289 289
284 284 284 284 285 285 284 283 282 283 285 286 284 284 284 285 285 287 288 288 288 288 288 288 289 289 289
284 284 284 284 284 285 284 284 283 284 282 283 284 284 285 285 285 287 287 287 288 288 288 289 289 289 290
284 285 284 284 284 285 285 284 284 284 283 284 285 285 285 285 286 286 287 288 288 288 288 289 289 290 290

GFSFLT2_850_thetae_057.txt.gz
Theta_e
286 286 285 285 285 285 286 286 285 285 286 287 288 288 289 290 290 290 291 291 291 292 293 293 293 294 294
286 286 286 285 285 285 285 285 285 285 286 286 287 287 288 289 289 289 290 290 290 290 291 291 292 293 293
286 286 286 285 285 285 285 284 285 284 285 286 286 286 287 287 288 288 288 288 288 289 290 290 291 291 292
286 286 285 285 285 285 284 284 285 285 285 286 285 286 286 286 286 286 286 286 287 288 289 290 290 291 292
286 285 285 285 284 284 284 284 285 285 285 285 285 286 286 286 286 286 286 286 288 288 289 289 290 291 291
286 285 284 284 284 284 284 285 284 285 285 284 285 285 286 285 285 285 286 285 287 288 288 289 289 291 291
285 284 284 283 283 284 285 285 284 284 284 284 285 285 285 285 286 286 286 286 286 287 288 289 289 289 290
284 284 284 284 285 285 284 284 284 285 284 282 284 285 285 285 286 286 286 286 286 287 287 287 288 289 289
284 284 284 284 283 283 283 283 282 283 285 282 284 283 284 285 286 286 285 286 287 288 289 287 288 289 289
284 284 284 284 284 284 283 282 282 281 284 282 282 282 282 282 284 285 286 287 288 288 289 290 290 289 289
283 284 285 285 285 285 284 283 282 282 285 282 281 282 281 281 284 285 286 287 288 289 290 290 290 289 289
284 284 284 285 285 285 285 285 284 285 285 284 282 282 282 282 282 284 285 287 287 289 289 289 289 289 288
283 284 284 285 285 285 285 285 285 286 285 285 283 283 282 282 283 284 284 286 288 288 288 289 289 288 288
284 284 285 285 285 285 284 284 284 285 285 285 284 283 283 283 284 283 285 284 287 287 288 287 288 288 288
284 284 285 285 285 285 284 284 283 284 285 285 285 285 285 284 284 285 285 286 287 287 286 287 288 288 288
285 285 284 284 284 284 284 283 283 284 284 285 285 285 285 284 284 285 285 286 287 287 286 286 287 288 288
285 285 285 284 283 284 284 283 284 284 285 285 284 284 283 283 285 285 286 286 287 287 287 287 287 288 289

GFSFLT2_850_thetae_060.txt.gz
Theta_e
287 287 286 286 286 286 285 285 285 286 286 287 287 288 288 289 290 290 290 291 291 292 292 293 294 294 294
287 286 286 286 285 285 285 284 284 285 285 286 287 287 287 288 289 289 289 290 290 290 290 291 292 292 293
286 286 286 285 285 284 284 283 284 285 285 285 286 286 286 287 287 287 287 288 288 288 289 289 290 291 292
286 286 286 285 284 284 283 284 284 285 285 285 286 285 286 286 286 286 286 286 286 287 288 289 289 290 291
287 286 286 285 284 283 283 284 284 285 285 285 285 285 287 286 286 286 286 285 287 288 288 288 289 289 290
286 286 285 284 283 283 284 285 284 285 284 284 285 285 286 286 286 286 285 285 286 286 288 288 288 289 290
285 285 284 283 284 284 285 284 283 284 284 283 285 286 286 286 286 286 286 286 285 286 287 288 288 288 289
284 284 284 284 285 285 284 283 283 284 285 282 285 285 285 286 286 286 286 286 285 286 286 286 287 288 288
284 284 284 284 283 283 283 283 283 284 285 283 284 283 284 285 286 286 286 285 285 286 286 286 286 287 289
284 284 284 284 284 284 284 282 282 281 283 283 282 282 282 282 284 286 286 286 286 286 286 287 288 287 289
283 284 285 285 285 285 285 284 283 283 285 282 282 282 280 282 283 286 285 286 286 287 287 288 288 288 288
284 285 285 285 285 285 285 285 284 284 285 284 282 283 282 281 282 285 285 285 286 287 287 288 288 288 288
284 285 285 285 285 285 285 285 285 285 285 285 283 283 282 282 282 284 284 286 286 286 286 286 287 287 289
284 285 285 285 285 285 284 284 283 285 285 285 284 284 283 283 283 284 285 282 285 286 286 286 287 287 287
285 285 285 285 285 284 284 284 283 284 285 285 285 284 284 284 284 285 285 285 286 286 286 286 286 287 288
285 285 285 284 284 284 284 284 284 284 285 285 285 284 284 284 284 285 285 285 286 286 286 285 286 288 287
286 285 285 285 285 285 284 284 284 284 284 285 284 284 283 282 285 284 285 286 287 287 287 287 286 287 288

GFSFLT2_850_thetae_063.txt.gz
Theta_e
287 287 287 287 287 287 286 286 285 285 285 286 287 288 289 289 289 290 290 291 291 292 292 293 293 294 294
287 287 286 286 286 286 285 285 284 284 285 286 286 287 287 288 288 289 289 289 290 290 290 291 292 292 293
287 286 286 286 286 285 285 284 283 285 286 286 286 286 286 287 288 288 288 288 288 288 289 289 290 291 291
286 287 286 286 285 285 284 283 284 285 286 285 286 285 286 286 286 286 286 286 286 287 287 288 289 289 290
287 286 286 286 285 284 283 284 284 285 286 285 285 285 286 286 286 286 286 286 286 287 288 288 288 289 289
286 286 286 285 284 283 284 285 284 284 284 284 285 285 286 286 286 286 286 286 286 287 287 287 288 288 288
285 285 284 283 284 285 285 284 283 284 284 284 285 286 286 286 286 286 286 286 286 286 287 287 287 288 288
284 283 284 284 285 284 283 283 283 284 284 284 285 285 285 285 286 286 286 286 286 286 286 287 286 287 288
283 283 284 284 284 283 284 283 283 284 284 283 285 283 284 284 284 285 285 285 285 285 285 285 285 286 288
284 285 285 285 285 284 284 283 283 282 283 282 282 281 282 282 283 284 285 285 286 285 285 285 284 285 286
284 284 285 285 285 285 285 284 284 283 285 282 282 280 280 281 283 284 284 285 285 286 286 286 285 285 286
284 285 285 285 285 286 285 285 284 284 285 284 282 282 282 281 282 284 285 285 285 286 286 286 286 286 285
285 285 285 285 286 285 285 285 285 285 285 285 284 284 283 282 282 284 284 285 285 286 285 286 286 286 286
285 285 286 286 285 285 285 285 284 285 285 285 285 284 283 283 283 284 285 283 286 286 286 285 286 287 287
285 286 286 286 286 286 285 285 284 284 285 285 285 284 284 284 284 285 285 286 286 286 285 286 287 287 288
286 286 286 286 286 286 285 285 285 285 285 285 285 285 285 285 284 285 286 286 286 286 285 284 284 287 288
286 286 286 286 285 286 285 285 285 285 285 285 284 284 282 282 286 284 284 285 286 286 286 286 286 288 288

GFSFLT2_850_thetae_066.txt.gz
Theta_e
289 289 288 288 287 287 287 286 286 286 285 285 286 287 288 289 289 290 290 290 291 292 292 293 293 294 294
287 287 287 287 286 287 286 286 285 285 285 285 286 286 287 287 288 289 289 289 290 290 290 291 291 292 293
287 286 286 286 286 286 285 285 284 284 286 286 286 286 286 287 287 288 287 288 288 289 289 289 290 290 291
285 286 286 286 286 285 284 283 284 285 287 286 286 286 286 286 286 286 286 286 286 287 288 289 289 289 290
286 286 286 285 285 284 283 284 285 285 286 285 286 286 287 287 286 286 286 286 286 287 288 288 288 289 289
286 286 285 285 283 283 284 284 283 284 284 285 285 286 287 286 286 286 286 286 286 287 287 287 287 288 288
285 284 283 283 284 284 284 283 283 284 284 285 285 286 286 286 286 286 286 286 285 286 287 288 288 288 288
283 282 283 284 284 283 283 284 284 285 284 284 286 285 285 285 285 286 286 286 285 286 286 287 287 287 287
282 283 284 284 284 284 285 284 285 285 285 283 284 283 284 284 284 284 285 285 285 285 285 285 285 286 287
284 285 285 285 285 285 285 284 284 282 284 282 283 282 281 282 283 284 285 285 285 285 285 285 285 285 285
284 285 285 286 286 285 285 285 284 284 285 282 282 282 280 282 283 284 284 285 285 286 286 286 285 285 284
284 285 285 286 286 286 285 285 285 285 285 284 283 283 282 282 283 284 284 285 285 286 286 286 285 285 284
285 285 285 286 286 286 286 286 286 286 286 285 284 284 283 283 283 284 284 286 286 286 286 286 286 286 286
285 285 286 286 286 286 286 286 286 287 286 285 285 284 284 284 284 284 286 284 287 287 286 286 286 286 287
285 286 286 286 286 286 286 285 285 285 286 286 286 285 285 284 285 286 286 286 286 286 285 286 287 287 287
285 286 286 286 286 286 285 285 285 285 285 286 286 286 285 284 284 285 285 285 286 286 285 284 286 288 288
285 286 286 285 285 286 285 285 285 285 285 285 285 284 283 283 285 285 285 286 286 286 286 286 286 288 288

GFSFLT2_850_thetae_069.txt.gz
Theta_e
290 290 289 288 288 288 287 287 287 287 286 285 285 287 288 288 289 289 290 291 291 291 292 293 293 294 294
289 288 288 287 287 287 287 286 286 285 285 286 287 287 287 287 288 288 289 289 290 290 291 291 292 292 293
287 287 286 287 286 286 286 285 285 286 287 287 287 286 286 287 287 287 287 287 288 288 289 289 290 291 291
286 286 286 286 286 285 285 284 285 287 287 287 287 287 287 286 286 287 287 287 286 287 287 288 289 289 290
286 286 286 286 285 284 283 284 285 287 287 286 287 287 287 287 287 287 286 286 286 286 288 288 288 288 289
286 286 285 284 283 283 284 284 284 286 285 284 286 286 287 286 286 286 287 286 286 286 287 287 287 288 288
285 284 283 283 283 284 284 284 284 286 285 284 286 286 286 286 286 286 286 286 286 286 286 287 287 287 288
282 282 283 284 284 283 284 284 284 286 285 283 286 285 285 286 286 286 286 285 285 285 286 287 287 286 287
282 283 284 285 284 284 285 284 285 286 286 284 285 284 285 286 286 285 285 285 285 285 285 285 285 285 286
285 286 285 285 285 285 285 285 285 284 285 283 285 283 282 284 284 285 286 286 286 286 285 285 285 284 284
285 285 285 286 286 286 286 285 285 285 286 283 283 284 282 283 285 285 285 286 286 286 287 286 286 285 284
285 285 286 286 286 286 286 286 285 285 286 285 284 284 283 283 284 286 286 286 286 287 287 286 286 286 285
285 286 286 286 286 286 286 286 286 286 286 286 285 284 284 284 284 286 286 287 287 287 286 286 286 286 286
285 286 286 286 286 286 286 286 286 287 286 286 285 285 285 285 285 286 287 284 287 286 286 286 286 286 286
286 286 286 286 286 286 286 286 285 285 286 286 286 286 286 285 285 286 286 286 286 287 286 287 287 287 287
286 285 286 286 286 286 286 286 286 286 286 286 286 286 285 284 285 285 286 286 287 287 286 285 287 288 288
286 286 286 286 285 286 286 286 286 286 286 286 285 285 283 284 285 286 286 287 287 288 288 288 287 289 288

GFSFLT2_850_thetae_072.txt.gz
Theta_e
300 297 294 290 289 288 287 287 287 287 287 286 286 287 288 288 289 289 290 291 291 292 292 293 294 295 295
293 288 288 288 288 287 288 287 287 287 286 286 288 288 288 288 288 288 289 289 290 291 291 291 292 292 293
288 287 287 287 287 287 287 286 286 286 287 288 288 288 288 288 288 287 288 288 288 288 289 289 290 291 291
286 287 288 288 288 287 287 286 286 287 287 288 288 289 289 288 288 288 288 287 287 287 287 288 288 289 289
288 289 288 288 287 286 285 286 286 287 287 287 287 287 288 288 288 288 287 287 287 287 287 288 289 289 289
287 288 288 287 285 285 285 286 286 287 286 286 286 286 287 287 288 288 287 287 286 286 287 287 287 288 288
287 286 285 285 284 284 285 284 284 285 285 285 287 286 286 286 287 288 287 287 286 286 286 287 287 288 288
284 283 284 284 285 285 285 284 285 286 285 285 286 285 286 286 287 287 287 287 286 286 286 286 286 287 287
283 283 284 285 285 284 285 285 285 287 286 285 286 285 286 287 287 286 287 287 286 286 286 285 285 286 286
284 285 285 285 285 286 286 286 285 284 286 284 285 284 283 286 286 286 287 287 286 287 287 287 286 285 285
285 285 286 286 286 286 286 286 285 286 287 283 283 284 282 282 285 286 287 287 286 287 286 287 287 286 286
285 286 286 286 286 286 286 286 286 286 286 285 284 285 284 284 285 287 287 287 287 287 286 286 286 286 286
286 286 286 286 287 287 287 287 286 287 286 286 285 285 285 285 285 287 286 287 287 287 287 286 286 286 286
286 286 286 286 287 286 287 287 287 287 287 286 286 285 285 286 285 286 287 284 287 287 287 287 287 287 288
286 286 286 286 286 286 286 286 286 286 287 287 286 285 285 285 287 286 286 286 287 287 286 286 288 288 289
286 286 286 286 286 286 286 285 285 286 286 286 286 286 285 285 285 286 285 285 286 286 286 286 288 289 288
286 286 286 286 286 286 285 284 284 285 285 285 285 284 285 285 286 286 286 286 287 288 289 288 288 291 289

GFSFLT2_850_thetae_075.txt.gz
Theta_e
300 300 301 300 300 296 290 289 288 288 288 288 287 286 287 289 289 290 290 291 291 292 293 293 294 294 294
300 300 299 292 290 288 288 288 288 288 287 287 287 288 289 289 289 289 289 290 290 290 291 291 292 292 293
292 289 288 288 288 288 288 288 288 287 286 287 288 288 289 289 289 288 288 288 288 288 289 289 290 290 291
288 287 288 289 289 289 288 288 286 286 287 288 288 288 288 288 289 289 288 288 288 287 288 288 289 289 290
287 289 290 289 289 288 287 286 286 286 287 288 287 288 288 289 288 288 288 288 288 288 288 289 289 289 289
289 287 288 288 287 286 285 284 286 287 287 288 288 288 288 288 288 288 288 287 287 287 287 287 288 288 289
287 287 287 286 285 284 285 285 286 287 286 286 288 287 288 288 288 288 288 288 287 287 287 287 287 288 288
285 284 283 283 284 285 285 285 286 287 286 286 288 287 288 288 288 288 288 288 288 288 287 286 287 287 287
283 283 284 285 285 285 286 285 285 287 287 286 287 285 287 288 288 288 287 287 287 287 287 286 286 287 287
284 285 285 286 286 286 286 285 285 285 286 285 286 285 284 287 287 287 288 288 287 287 287 286 286 287 286
285 286 286 286 286 286 285 285 285 286 287 283 285 285 284 284 287 287 287 288 288 287 287 287 287 286 286
286 286 286 287 287 286 286 286 286 286 287 286 285 285 284 285 285 287 287 287 287 287 287 287 287 287 287
286 287 287 287 287 287 287 287 287 287 287 286 285 285 285 285 286 286 286 287 287 287 287 287 287 287 288
287 287 287 287 287 287 287 287 287 288 287 286 285 284 284 284 284 286 286 284 287 287 286 287 287 288 288
286 287 287 287 287 286 286 286 286 286 286 286 285 283 284 284 285 286 286 286 286 286 286 286 287 288 289
286 286 286 286 286 286 286 285 284 284 285 285 284 284 285 285 285 286 286 286 286 286 286 286 288 290 290
286 286 286 286 286 286 285 285 284 283 283 284 284 285 285 285 285 286 286 286 287 287 286 286 287 290 289

GFSFLT2_850_thetae_078.txt.gz
Theta_e
306 303 301 299 299 299 300 296 290 289 289 289 288 288 288 288 289 290 291 291 292 292 293 294 294 294 294
302 300 300 300 296 291 289 288 289 289 288 288 287 288 289 289 290 290 290 290 291 291 292 292 292 293 293
299 296 291 289 288 289 289 289 289 288 287 286 286 288 289 289 289 290 290 290 290 291 290 290 290 290 291
290 288 288 289 289 288 289 289 288 286 286 287 288 289 289 289 289 288 288 288 289 289 289 289 290 290 290
287 289 289 288 289 288 288 287 286 285 288 289 288 289 289 289 289 288 288 288 289 289 289 290 290 290 290
286 287 287 288 288 287 285 284 286 287 287 290 288 289 289 289 288 288 288 288 288 289 289 289 289 289 289
287 286 286 285 284 284 284 286 287 287 286 288 288 288 289 288 288 288 288 288 288 288 288 288 288 289 288
285 284 284 283 283 284 286 286 286 287 286 287 288 288 289 289 288 288 288 288 287 287 287 287 288 288 288
283 284 284 286 286 286 286 286 287 288 287 287 287 286 288 290 289 288 288 287 287 288 288 287 287 287 288
284 285 286 286 286 286 286 286 285 286 286 286 287 285 285 288 288 288 288 288 288 288 288 288 286 286 286
285 286 286 286 286 286 286 285 286 286 286 283 284 285 283 285 288 288 288 288 288 288 287 287 287 286 286
286 286 286 287 287 287 287 286 286 286 287 286 283 285 284 284 285 287 288 287 287 288 287 287 287 287 288
286 287 287 287 287 287 287 287 287 287 287 286 284 284 283 283 283 284 285 287 287 286 287 287 287 288 288
287 287 287 287 287 287 287 287 287 287 286 284 283 283 283 283 284 285 286 284 286 287 287 287 287 288 288
287 287 287 287 287 287 287 287 286 286 285 285 283 283 284 284 285 285 285 286 286 286 286 286 287 288 288
287 287 287 287 287 287 286 286 285 285 283 284 283 283 284 285 285 285 285 285 286 287 287 287 287 288 288
287 287 287 287 286 286 285 284 284 283 283 283 284 284 284 284 285 285 285 286 286 286 287 287 287 288 287

GFSFLT2_850_thetae_081.txt.gz
Theta_e
306 306 305 302 300 300 300 299 298 292 289 289 288 288 288 289 289 291 291 292 292 293 293 294 294 294 295
304 299 300 300 300 297 293 289 289 289 289 288 288 287 287 289 290 290 291 292 292 292 292 292 293 293 293
299 299 297 293 289 288 289 289 289 289 288 287 286 286 288 289 290 290 289 289 290 290 290 290 290 291 291
294 290 290 290 289 288 289 289 288 287 286 286 288 289 289 288 288 288 288 288 288 289 290 290 290 291 291
288 288 288 288 288 288 288 287 286 285 288 288 289 289 289 288 288 288 288 288 289 289 290 290 290 290 291
287 286 287 287 287 286 285 284 286 287 288 289 288 289 289 289 289 288 288 288 288 289 289 289 289 290 290
287 286 286 285 284 284 284 285 286 287 288 290 289 289 289 289 289 289 288 288 287 288 288 289 289 289 289
285 284 284 284 284 285 286 286 287 287 287 288 288 290 290 289 289 288 288 288 287 287 287 287 287 288 288
284 283 284 285 286 286 286 287 288 288 287 287 287 289 289 290 289 288 288 287 287 287 287 288 288 287 288
283 284 285 286 286 286 287 287 287 287 287 286 286 285 286 288 288 289 288 288 287 287 287 288 288 288 288
284 286 286 286 287 287 287 287 286 286 286 284 285 284 282 284 288 289 288 288 288 288 287 287 287 287 287
286 286 287 287 288 288 287 287 287 287 287 286 284 283 282 282 283 288 288 287 287 287 287 287 287 287 287
287 287 287 288 288 288 288 288 288 287 287 286 284 282 282 283 283 285 286 287 287 286 287 287 287 288 288
287 287 288 288 288 288 288 288 288 288 287 286 285 283 284 284 284 285 285 283 286 287 286 287 287 287 287
287 288 288 288 288 288 288 287 287 288 288 287 285 284 284 284 284 285 285 285 286 286 286 286 287 287 288
287 287 288 288 288 288 287 286 286 287 286 286 285 285 285 286 286 285 284 285 285 286 286 286 287 287 287
287 287 287 287 287 287 286 285 286 286 286 285 285 284 284 284 287 286 284 285 286 286 286 286 286 287 287

GFSFLT2_850_thetae_084.txt.gz
Theta_e
308 307 306 305 303 303 301 299 299 298 294 289 288 288 289 290 291 291 292 292 292 293 294 294 294 295 295
305 303 302 301 302 301 299 294 290 289 289 289 289 288 287 287 287 290 291 292 292 292 293 293 293 294 294
303 302 301 299 296 293 291 290 289 289 289 288 287 286 286 287 289 289 290 290 289 289 289 290 291 291 292
299 294 296 295 293 290 289 288 288 288 287 286 287 288 288 289 289 288 288 288 288 288 289 290 291 291 291
295 292 288 289 288 288 288 287 286 285 286 288 288 289 289 289 289 288 288 288 288 289 289 290 291 291 291
287 287 287 287 287 286 286 285 285 287 288 290 289 289 289 289 289 289 289 289 288 288 288 288 290 290 290
287 287 286 286 285 284 284 284 286 287 288 290 289 290 289 289 289 289 288 288 288 287 288 288 289 289 289
286 285 284 284 284 284 286 287 287 288 288 289 289 290 290 289 289 289 288 288 287 287 287 288 288 287 288
284 284 283 284 285 286 287 287 287 287 288 288 289 290 290 290 289 289 288 288 288 287 287 287 288 288 288
283 283 283 285 286 287 287 287 287 287 287 287 288 287 288 289 289 289 288 288 288 287 287 287 287 287 288
283 284 286 286 286 287 287 287 287 287 287 286 287 285 283 287 289 289 288 288 287 287 287 287 287 286 286
285 286 286 287 287 287 288 288 287 288 287 286 286 286 284 285 286 288 288 288 287 287 287 287 287 287 287
286 286 287 287 288 288 288 288 288 288 287 286 286 286 284 284 285 287 287 288 287 286 287 287 287 288 288
286 287 287 288 288 288 288 288 288 288 287 286 286 285 285 284 284 286 287 285 287 286 286 286 286 287 287
287 287 287 288 288 288 288 288 288 288 288 287 285 285 285 284 285 286 286 286 286 286 286 287 287 287 287
287 287 287 287 287 288 287 287 287 287 287 286 286 286 286 287 286 285 285 286 286 285 286 286 286 287 286
286 286 286 287 287 287 286 286 286 286 286 286 285 285 284 285 286 285 284 285 285 286 285 285 285 286 286

GFSFLT2_850_thetae_087.txt.gz
Theta_e
311 310 308 306 305 304 303 302 301 300 300 298 294 291 289 290 290 289 291 292 292 293 294 295 295 295 295
309 308 306 304 303 302 301 300 298 294 291 290 290 289 289 288 287 287 289 292 293 292 292 292 294 294 295
305 304 303 302 301 300 298 295 292 292 289 289 288 288 287 286 287 288 288 289 289 289 289 289 289 291 292
303 302 299 296 297 296 292 290 289 288 288 287 286 286 288 288 288 288 288 288 289 289 289 289 290 291 292
299 297 295 291 289 288 288 288 287 287 286 287 287 288 288 289 289 289 289 289 289 289 289 289 290 291 291
289 288 288 287 287 287 287 286 286 286 288 289 289 289 289 289 289 289 290 289 289 289 289 289 290 289 291
288 287 287 287 286 285 285 284 285 287 289 290 290 290 290 289 290 290 289 289 289 289 289 289 289 288 288
286 286 285 285 284 284 284 286 288 288 289 289 290 290 290 290 290 290 289 288 288 288 288 288 288 288 288
285 284 284 284 284 285 287 287 288 289 289 289 290 290 290 289 289 289 288 288 288 288 288 288 288 288 288
284 284 283 283 284 286 287 287 287 287 288 288 289 288 289 289 288 287 288 288 288 287 287 288 288 287 288
283 283 283 285 286 286 287 287 287 287 287 286 288 287 286 287 290 289 288 288 288 288 287 287 287 286 287
283 284 285 286 287 287 287 288 288 288 288 287 287 287 285 286 287 289 289 288 288 288 286 286 286 286 286
284 285 286 287 287 288 288 288 288 288 287 287 286 286 285 285 285 288 287 288 288 288 286 286 286 287 287
285 286 287 287 287 288 288 288 288 288 287 286 286 285 285 286 285 287 287 285 287 287 286 286 287 287 287
286 286 287 287 288 288 288 288 288 288 288 287 285 285 285 285 285 287 286 286 286 286 286 286 288 287 287
286 286 287 287 287 287 287 287 287 287 287 287 286 286 286 287 287 287 286 286 286 286 285 285 287 287 286
286 286 286 287 286 287 286 286 286 286 286 286 285 285 284 284 286 285 285 285 285 286 285 286 285 287 286

GFSFLT2_850_thetae_090.txt.gz
Theta_e
311 310 309 309 308 308 307 305 304 303 302 301 300 298 294 290 290 289 289 289 290 293 293 295 295 295 295
309 308 307 306 306 304 303 302 302 301 299 295 294 292 290 289 288 288 287 287 288 289 290 290 291 292 293
308 306 305 304 303 301 300 299 299 297 293 290 289 289 288 287 287 288 288 289 290 290 289 289 289 290 291
305 304 303 301 298 296 297 295 291 289 288 288 287 286 286 287 289 289 290 290 290 290 289 290 290 290 292
302 300 298 296 293 290 288 288 288 288 287 286 287 288 288 289 289 289 289 289 289 289 289 289 290 290 290
292 289 288 288 288 287 287 287 286 286 286 288 289 289 289 289 289 289 290 289 289 289 289 289 289 289 288
288 288 287 287 287 286 286 285 285 286 288 290 290 289 289 289 290 290 290 289 289 289 289 289 288 288 288
286 286 286 285 285 285 285 285 286 288 288 289 290 290 290 290 290 290 290 289 289 289 289 289 289 289 289
285 285 284 284 284 284 285 287 288 288 288 289 290 290 290 290 289 289 289 288 288 288 288 288 288 288 289
284 284 283 283 283 284 286 287 287 288 289 288 289 289 289 289 289 289 288 287 287 288 288 288 288 287 287
284 283 283 283 284 286 287 287 288 288 288 288 289 289 288 289 291 290 290 289 289 288 288 288 287 286 287
283 283 284 285 286 287 287 288 288 289 288 288 288 288 287 287 289 290 290 290 289 288 288 287 287 286 286
283 283 285 286 287 287 288 288 288 288 288 288 287 287 287 287 287 289 289 290 289 287 287 287 287 287 287
283 284 286 287 287 288 288 288 289 288 287 287 286 286 287 287 286 288 288 286 288 287 286 287 287 287 287
284 285 286 287 287 288 288 288 288 288 288 286 285 285 286 286 286 288 287 287 287 286 286 287 287 287 287
283 285 286 286 287 287 287 287 287 287 287 287 286 285 286 287 287 287 286 287 286 286 286 286 287 288 287
282 283 285 286 286 286 286 286 286 286 286 285 285 284 284 285 288 286 285 286 285 286 285 285 286 287 287

GFSFLT2_850_thetae_093.txt.gz
Theta_e
312 311 310 309 309 308 306 307 307 307 305 304 303 301 300 297 295 293 291 290 289 289 290 293 294 295 295
309 308 308 307 307 306 305 305 304 303 302 302 299 295 295 291 289 289 288 288 288 289 289 290 291 292 293
308 307 307 306 304 303 303 303 302 300 299 295 291 289 289 288 287 287 288 289 290 290 290 289 289 290 291
306 305 304 304 303 300 298 298 295 291 289 288 288 287 287 287 287 289 290 290 290 290 290 290 290 290 291
303 302 301 299 297 295 291 289 288 288 287 287 287 287 288 289 290 290 290 290 290 290 290 290 290 290 290
295 293 291 289 288 288 288 287 286 286 286 286 288 289 290 290 290 290 290 290 290 290 290 290 289 289 290
289 288 288 288 287 287 286 286 285 285 286 289 290 289 290 290 290 290 290 290 290 290 290 289 290 290 289
287 287 286 286 286 285 285 285 285 287 288 290 290 290 290 290 290 290 290 290 289 289 289 289 289 289 289
286 286 285 285 285 284 284 285 287 288 289 289 290 290 290 290 290 290 290 289 289 288 288 288 289 289 290
285 284 284 284 284 284 285 287 288 288 289 289 289 290 290 290 289 289 289 289 289 288 289 289 289 289 289
284 284 284 284 284 285 287 287 288 288 288 289 289 289 289 289 290 289 289 289 289 289 289 289 288 287 288
284 284 284 284 285 286 287 288 288 288 288 288 289 288 288 289 290 291 290 290 289 289 287 287 287 287 287
284 284 284 285 286 287 288 288 288 288 288 288 288 288 288 288 289 290 289 290 289 288 287 287 286 287 287
284 284 284 285 287 287 288 288 288 288 287 287 287 287 288 288 287 289 288 287 289 288 287 287 287 287 287
284 284 284 286 287 287 287 288 288 288 288 286 285 286 287 287 287 288 287 287 287 287 286 286 287 287 287
283 283 283 284 286 286 286 287 287 287 287 286 286 285 285 287 287 287 287 287 286 286 286 285 287 287 287
283 283 282 282 282 284 285 286 286 286 286 285 284 283 283 284 286 285 285 286 285 286 286 286 286 287 287

GFSFLT2_850_thetae_096.txt.gz
Theta_e
314 313 312 311 310 309 309 307 306 307 307 306 305 304 304 303 301 299 296 292 290 289 290 294 294 296 295
311 310 309 308 308 307 307 306 305 305 305 304 303 302 300 298 294 290 290 289 288 288 289 290 291 292 293
308 308 307 307 307 305 304 304 304 304 302 301 300 296 292 290 289 288 288 288 289 290 291 291 290 290 291
307 306 306 306 304 304 303 302 301 299 294 290 289 289 288 288 288 288 289 290 290 290 290 290 290 290 290
305 304 304 303 302 301 298 294 290 289 289 288 288 288 288 288 290 291 290 290 290 291 290 290 290 290 290
303 301 298 295 292 290 289 288 288 288 287 287 287 288 290 291 291 290 291 291 290 290 290 290 290 290 290
291 290 289 289 289 288 287 287 286 286 286 287 289 290 290 290 291 291 291 290 290 290 290 290 290 290 290
289 288 288 287 287 286 286 286 286 286 287 289 290 290 290 290 291 290 290 291 290 290 289 289 289 289 289
288 287 287 286 286 285 285 285 286 287 288 289 289 290 290 290 290 290 290 290 290 290 290 290 290 291 290
287 286 286 286 285 285 285 285 287 287 289 289 289 289 290 290 290 290 290 290 290 290 289 290 290 290 290
286 285 285 285 285 285 285 287 288 288 288 288 289 289 289 289 289 289 289 289 289 289 290 290 290 289 289
285 285 285 285 285 285 287 287 288 288 288 289 289 289 288 289 290 290 290 290 289 289 289 289 288 289 288
285 285 284 285 285 286 287 288 288 288 288 289 289 288 288 288 289 289 289 289 288 288 288 288 288 288 288
285 285 285 285 285 287 287 288 288 288 288 288 288 288 288 287 287 289 288 287 288 287 287 288 288 288 287
285 285 285 285 285 286 287 287 287 288 287 287 286 286 286 286 286 287 287 287 287 287 287 287 288 287 287
285 285 284 284 284 284 285 286 286 286 286 286 285 285 285 285 286 286 286 286 286 286 285 285 288 287 287
285 285 284 284 283 283 283 283 283 283 284 284 284 284 283 282 283 283 284 285 284 284 284 284 285 287 286

GFSFLT2_850_thetae_099.txt.gz
Theta_e
314 314 314 314 312 311 309 308 308 308 308 307 308 307 306 305 304 304 301 298 295 292 291 290 290 292 293
313 313 312 311 309 308 307 307 308 306 306 305 305 304 304 303 303 300 293 290 290 289 289 289 289 291 292
311 310 309 308 307 307 307 305 305 304 305 304 303 302 301 295 291 290 289 289 288 289 290 291 291 290 290
309 308 307 306 306 306 304 304 303 302 301 298 293 291 290 290 289 289 288 289 290 291 291 290 291 291 291
307 306 306 305 304 304 301 300 297 292 290 289 290 289 289 288 288 289 291 291 291 291 291 291 291 291 290
305 304 303 303 302 298 294 290 289 289 289 288 288 288 288 289 291 291 291 291 291 291 290 290 290 290 290
302 298 295 292 291 289 289 288 288 287 287 287 288 289 290 291 291 291 291 291 291 290 290 290 290 290 290
291 290 290 289 289 288 287 287 286 286 287 287 289 290 291 291 291 291 291 291 291 290 290 290 291 290 291
289 289 288 288 287 287 286 286 286 287 288 289 290 291 290 291 291 291 291 290 291 290 290 290 290 290 291
288 288 287 287 286 286 286 286 286 288 289 289 290 290 291 291 291 291 290 290 290 290 290 290 290 291 290
287 287 286 287 286 286 286 286 287 288 289 289 290 290 290 290 291 290 290 290 290 290 290 290 290 290 290
287 286 286 286 286 286 286 287 288 288 289 289 289 289 289 289 290 290 290 290 289 290 289 289 289 289 289
286 286 286 286 286 286 286 288 288 289 289 289 289 289 289 289 289 290 290 290 289 288 288 288 288 288 288
287 287 286 286 286 286 287 288 288 289 289 289 289 288 288 288 288 289 289 287 288 287 287 287 288 287 287
287 286 286 286 286 286 286 287 287 288 288 288 288 288 287 287 287 288 287 287 286 286 286 286 287 287 286
287 286 286 286 285 285 285 285 285 286 286 286 285 285 285 285 285 285 285 284 284 284 284 284 286 287 285
287 286 286 286 285 285 285 285 285 284 283 283 283 282 282 282 283 282 283 283 282 283 284 284 284 286 285

GFSFLT2_850_thetae_102.txt.gz
Theta_e
317 316 314 312 313 313 311 310 309 308 308 308 308 307 308 307 306 305 304 304 302 298 294 291 290 290 290
316 315 312 310 312 311 309 307 307 307 307 306 306 305 305 304 303 303 302 296 292 290 290 290 289 289 291
315 313 311 310 309 308 307 307 306 305 305 304 304 304 303 301 296 292 290 290 290 289 289 290 291 291 291
312 310 309 308 307 306 306 305 304 303 303 301 300 295 291 290 290 289 289 289 289 290 291 291 291 291 291
309 308 308 307 306 306 305 303 302 300 294 291 290 290 289 289 289 289 289 290 291 291 291 291 291 291 291
308 307 306 306 305 304 302 299 294 290 290 289 289 288 288 288 289 291 291 291 291 291 291 291 291 291 291
305 305 305 304 300 295 292 290 289 289 288 288 288 288 289 290 291 291 291 291 291 291 291 291 291 291 290
303 301 295 292 290 290 289 289 288 288 287 287 288 289 290 291 291 291 291 291 291 291 290 290 291 291 291
291 290 290 289 289 289 288 288 287 287 288 288 289 291 291 291 291 291 291 291 291 290 291 290 290 291 291
289 289 289 288 288 288 288 287 286 287 288 289 290 290 291 291 291 291 291 291 290 290 290 290 290 291 291
288 288 288 287 288 287 287 287 286 286 289 290 290 290 290 291 291 290 290 290 290 290 290 290 290 290 290
288 288 288 288 287 287 287 286 286 287 289 289 289 290 290 291 291 291 290 290 290 290 289 289 289 289 289
288 287 287 287 287 287 286 287 288 288 289 289 289 289 289 290 290 290 290 290 289 289 288 288 288 288 288
287 287 287 287 287 287 287 287 288 289 289 289 289 289 289 289 289 289 288 288 288 287 286 287 287 286 286
287 287 287 287 287 287 287 287 287 288 288 288 288 288 288 288 288 287 286 286 285 284 284 285 285 285 285
287 287 287 287 287 287 287 286 287 286 286 286 285 285 285 286 285 286 285 284 284 284 283 283 286 286 285
287 287 287 287 287 287 287 286 286 286 286 285 284 284 284 285 286 284 285 284 283 284 284 284 285 286 285

GFSFLT2_850_thetae_105.txt.gz
Theta_e
322 320 317 316 314 311 312 312 311 310 309 308 308 308 308 307 307 307 306 305 304 304 303 296 292 290 290
320 319 317 315 312 309 310 310 309 307 307 307 307 307 306 306 305 305 304 303 302 295 291 290 290 289 290
319 318 316 314 310 310 309 309 307 306 306 305 305 305 304 303 303 302 297 292 291 290 290 290 291 291 291
316 315 314 311 309 309 308 306 305 305 303 303 303 302 300 296 292 290 290 289 289 289 290 292 291 291 291
314 313 311 309 308 308 306 305 304 303 301 299 294 291 290 290 289 289 289 289 289 291 291 291 291 291 291
311 310 309 308 307 306 305 304 302 299 294 290 290 289 289 289 288 289 290 291 291 291 291 291 291 291 291
308 308 307 306 305 304 304 301 297 291 290 289 289 288 288 288 290 291 291 291 291 291 291 291 290 290 290
306 305 304 304 302 297 292 290 289 289 288 288 288 288 289 290 291 291 291 291 291 291 291 290 290 290 291
304 302 300 294 291 290 290 289 288 288 288 288 288 289 290 291 291 291 291 291 291 290 290 290 290 290 290
296 291 290 289 289 288 288 288 287 287 288 288 289 290 291 291 291 291 291 291 290 290 290 290 290 290 291
289 289 288 289 288 288 288 288 287 287 288 289 290 291 290 291 291 291 291 290 290 290 290 290 290 290 290
287 288 288 288 288 288 287 287 287 287 287 288 290 290 290 290 290 291 290 290 290 290 290 289 289 289 289
287 287 287 287 287 287 287 287 287 287 288 289 289 290 290 290 290 290 290 289 289 289 289 288 288 288 287
286 287 287 287 287 287 287 287 287 288 289 289 289 289 289 289 289 289 289 288 287 287 287 286 286 286 286
287 287 287 287 287 287 287 287 287 287 288 288 288 288 288 288 287 287 286 287 286 285 285 286 286 286 286
287 287 287 287 287 287 287 287 287 286 286 286 286 286 286 286 286 287 286 286 285 285 285 285 287 287 287
287 287 287 287 287 288 287 287 287 286 286 286 286 285 285 286 285 286 286 286 285 286 286 286 286 287 287

GFSFLT2_850_thetae_108.txt.gz
Theta_e
323 321 318 320 318 316 314 312 311 311 311 310 309 309 309 308 308 308 307 307 305 305 304 303 300 294 291
322 320 319 318 315 314 312 310 309 309 309 308 307 307 307 307 306 306 305 304 304 303 299 292 290 290 290
319 318 317 317 315 313 312 310 309 308 307 306 306 306 306 305 304 304 303 302 299 292 290 290 290 290 292
317 317 316 314 313 312 310 308 308 307 305 305 304 304 304 303 302 300 293 291 290 290 290 290 292 291 291
315 315 314 314 313 311 308 307 306 305 304 303 302 301 298 294 291 290 290 289 289 289 291 292 291 291 291
314 314 314 312 310 309 307 306 304 304 303 302 299 292 290 289 289 289 289 289 289 291 291 291 291 291 291
311 310 309 308 308 307 306 305 304 303 298 292 290 289 289 288 288 289 290 291 291 291 291 291 291 291 290
308 307 306 306 305 304 303 302 301 298 293 289 289 288 288 289 289 290 291 291 291 291 291 291 291 290 290
305 305 305 304 303 302 300 295 292 290 289 288 288 288 288 289 290 291 291 291 291 291 291 291 290 290 290
302 302 302 300 295 291 290 289 289 288 288 287 288 288 289 290 291 291 291 291 291 291 291 290 290 290 290
293 291 290 289 289 288 288 288 287 287 288 287 288 289 290 291 291 291 291 291 291 290 290 290 290 290 290
288 288 288 288 288 288 287 287 287 287 286 288 289 290 290 290 290 290 290 290 290 290 290 290 290 289 289
287 287 287 287 287 287 287 287 287 287 286 287 288 289 289 290 290 290 290 290 290 290 289 289 289 288 288
287 286 287 287 287 286 286 286 286 286 287 288 289 289 289 290 290 290 289 289 288 288 288 288 287 286 286
287 287 287 287 286 286 286 286 286 287 287 288 289 289 289 289 289 288 287 287 287 286 287 287 286 286 286
287 287 287 287 286 286 286 286 286 286 287 287 287 287 288 288 288 288 288 287 286 286 286 287 288 287 287
287 287 286 286 286 286 286 286 286 286 287 287 287 287 287 288 288 288 287 286 286 286 286 286 288 288 287

GFSFLT2_850_thetae_111.txt.gz
Theta_e
321 322 321 320 320 318 318 315 314 312 311 311 311 310 309 309 310 309 308 308 307 307 306 305 303 302 296
320 320 319 318 318 318 316 315 313 311 310 309 309 308 307 307 307 307 307 307 306 305 304 303 296 291 290
317 318 318 317 317 317 316 314 313 309 309 308 307 306 306 306 306 306 305 304 303 303 299 292 291 290 290
314 317 316 316 316 315 314 313 311 307 307 307 306 305 304 304 304 304 303 301 295 292 290 290 290 291 292
314 312 313 315 315 313 312 310 308 305 306 305 304 303 302 301 301 299 295 291 290 289 289 290 291 292 291
312 313 314 313 313 312 311 309 306 306 305 304 303 301 300 294 291 290 290 289 289 289 289 291 291 291 291
310 311 311 311 310 308 308 308 307 305 304 302 300 298 292 290 289 289 289 288 289 290 291 291 291 291 291
308 308 308 308 306 306 306 305 304 303 302 299 295 291 290 289 288 288 288 290 291 291 291 291 291 291 291
305 306 306 305 305 305 304 304 302 302 299 295 290 289 288 288 288 289 290 291 291 291 291 291 291 291 291
302 303 303 303 302 302 301 300 296 293 290 289 288 288 288 288 289 290 291 291 291 291 291 290 290 291 290
297 296 296 297 296 292 291 289 289 288 288 288 287 288 288 290 290 290 291 291 291 291 290 290 290 290 290
289 288 288 288 288 288 287 287 287 287 287 287 288 288 288 290 290 291 291 291 291 290 290 290 291 290 290
287 287 287 287 287 287 287 287 287 287 287 287 287 289 289 289 290 290 290 290 290 290 290 290 290 290 289
286 286 286 286 286 286 286 286 286 287 287 287 287 287 288 289 289 289 290 289 290 290 289 289 289 288 287
286 286 286 286 286 286 286 286 286 287 287 287 287 288 289 289 289 289 289 289 288 288 288 288 287 286 286
286 286 286 286 286 286 286 286 286 287 287 287 287 288 288 288 288 288 288 288 287 287 288 288 288 286 287
286 286 286 285 285 286 286 286 287 287 286 287 287 287 287 288 288 289 289 288 288 288 287 287 288 288 288

GFSFLT2_850_thetae_114.txt.gz
Theta_e
319 320 319 319 319 318 319 319 317 316 314 313 312 311 311 310 310 310 311 310 309 307 307 306 305 305 303
315 316 313 316 318 317 317 317 316 314 314 312 310 310 309 308 308 307 307 307 307 307 306 305 304 302 293
315 315 315 315 316 317 316 316 315 314 313 311 309 308 307 307 306 306 306 306 306 305 304 303 300 292 291
311 312 311 313 315 315 315 314 313 312 311 309 309 307 306 306 305 305 304 304 303 302 300 295 291 290 290
308 309 312 313 313 312 313 312 310 311 309 308 307 305 305 304 302 303 302 301 298 293 291 290 290 290 292
307 309 310 311 312 312 312 311 310 310 308 307 305 304 303 302 300 297 293 291 289 290 290 289 290 292 292
307 308 309 309 310 310 311 309 309 308 306 305 304 302 301 300 297 291 290 289 288 288 289 289 291 291 291
305 306 307 307 307 307 307 306 306 305 305 303 302 301 297 292 290 289 288 288 288 289 290 291 291 292 291
303 304 304 305 305 305 305 304 304 303 302 301 300 298 292 289 289 288 288 288 289 290 291 291 291 291 291
301 301 302 302 303 303 302 302 301 300 301 299 296 291 289 288 288 288 289 289 290 290 291 291 291 291 291
298 296 296 296 297 298 298 298 298 296 292 289 289 288 288 289 288 288 289 290 291 291 291 291 291 291 291
294 289 288 287 288 288 288 288 288 288 288 288 287 288 287 288 291 289 290 291 291 291 291 291 291 291 291
287 287 287 286 286 287 287 287 287 287 287 287 286 287 288 288 289 290 291 291 291 291 291 291 290 290 290
287 286 286 286 286 286 286 286 286 286 286 286 286 286 288 289 289 290 290 290 291 290 291 290 290 290 289
286 286 286 286 285 285 285 285 285 285 286 286 286 286 287 287 289 289 290 290 290 290 289 289 289 288 288
286 286 286 285 285 285 285 285 285 285 285 285 286 287 287 288 289 289 289 289 288 288 288 289 288 288 288
286 286 286 286 285 285 285 285 286 285 285 286 286 287 287 288 289 289 290 289 288 289 289 289 289 287 287

GFSFLT2_850_thetae_117.txt.gz
Theta_e
319 318 317 317 317 318 317 320 317 318 317 315 314 313 312 311 311 312 311 311 311 311 310 308 308 306 304
311 312 311 318 315 315 314 315 316 316 316 315 314 312 310 310 310 308 308 308 308 308 307 307 306 305 304
308 310 312 312 312 314 315 314 315 314 315 314 313 311 309 309 307 307 306 306 307 306 306 305 304 303 298
306 308 309 311 312 311 314 314 314 313 312 312 312 309 308 307 307 306 306 305 305 305 304 302 301 297 291
305 306 307 308 309 311 313 313 312 312 311 309 309 307 306 306 305 304 304 304 304 303 302 298 292 290 290
304 305 306 308 309 309 310 311 309 311 310 308 307 307 305 304 303 302 301 301 301 299 296 292 290 289 290
304 305 306 307 307 308 309 309 309 309 309 307 307 305 304 303 302 300 299 295 291 290 289 290 289 289 291
303 304 304 305 305 306 306 305 305 305 306 305 305 305 303 302 300 299 293 290 289 289 288 289 288 290 291
302 302 303 303 304 304 304 304 304 305 304 303 303 303 302 300 296 291 289 289 288 288 288 288 290 290 291
301 301 301 301 301 302 302 302 302 302 302 302 301 300 298 297 292 289 288 288 288 289 290 290 290 291 291
300 298 297 296 296 298 299 299 299 299 299 296 297 297 294 289 289 288 288 288 288 289 290 291 291 291 291
295 293 292 290 288 288 288 289 290 291 292 292 290 288 288 288 288 289 288 288 289 290 290 290 291 291 291
288 287 287 287 287 287 287 287 287 287 287 287 287 287 287 287 287 289 289 289 290 290 290 291 291 291 291
287 287 286 287 286 286 286 286 286 286 286 286 286 286 286 287 288 288 289 290 290 290 290 290 291 291 290
287 286 286 286 286 286 286 286 286 286 285 285 286 286 286 286 288 289 289 289 290 290 290 290 290 290 290
287 286 286 286 286 286 286 286 286 286 285 285 285 286 286 287 287 288 288 289 289 289 289 289 289 289 289
288 286 286 286 286 286 286 286 286 286 285 285 286 286 286 287 288 289 289 289 288 288 289 289 289 289 289